Regional Weather Roundup
Issued by NWS

Home | Current Version | Previous Version | Graphics & Text | Print | Product List | Glossary On
Versions: 1 2 3 4 5 6 7 8 9 10 11 12 13 14 15 16 17 18 19 20 21 22 23 24 25 26 27 28 29 30 31 32 33 34 35 36 37 38 39 40 41 42 43 44 45 46 47 48 49 50
000
ASUS43 KLSX 270559
RWRMO

WEATHER SUMMARY FOR MISSOURI
NATIONAL WEATHER SERVICE SPRINGFIELD MO
1200 AM CST THU NOV 27 2014

NOTE: "FAIR" INDICATES FEW OR NO CLOUDS BELOW 12,000 FEET WITH NO
       SIGNIFICANT WEATHER AND/OR OBSTRUCTIONS TO VISIBILITY.
       CURRENT SKY AND/OR WEATHER CONDITIONS ARE NOT AVAILABLE FOR
       CHILLICOTHE AND FARMINGTON.

MOZ001>031-035>038-043-044-053-054-270700-
...NORTHERN AND WESTERN MISSOURI...

CITY           SKY/WX    TMP DP  RH WIND       PRES   REMARKS
KANSAS CTY INT CLOUDY    27  21  78 NW13      30.42R WCI  16
6HR MIN TEMP:  27; 6HR MAX TEMP:  31;

KANSAS C DTWN  CLOUDY    29  21  72 NW13      30.42R WCI  19
6HR MIN TEMP:  29; 6HR MAX TEMP:  34; 6HR PCP: TRACE;

LEE`S SUMMIT   CLOUDY    28  22  78 NW15      30.40R WCI  16
6HR MIN TEMP:  28; 6HR MAX TEMP:  32;

ST JOSEPH      CLOUDY    26  20  77 NW15      30.45R WCI  14
6HR MIN TEMP:  26; 6HR MAX TEMP:  31;

CHILLICOTHE      N/A     30  24  78 NW8G21    30.38R WCI  22
6HR MIN TEMP:  30; 6HR MAX TEMP:  32;

KIRKSVILLE     CLOUDY    29  27  92 N9        30.32R FOG     WCI  20
6HR MIN TEMP:  29; 6HR MAX TEMP:  32; 6HR PCP:  0.03;


$$
MOZ066>068-077>081-088>096-101>105-270700-
...SOUTHWEST MISSOURI...

CITY           SKY/WX    TMP DP  RH WIND       PRES   REMARKS
SPRINGFIELD    CLOUDY    32  24  72 NW15G23   30.33R WCI  22
6HR MIN TEMP:  32; 6HR MAX TEMP:  41;

JOPLIN         CLOUDY    32  23  69 N16G26    30.41R WCI  21
6HR MIN TEMP:  32; 6HR MAX TEMP:  40;


$$
MOZ032>034-039>042-045>050-055>058-069>072-270700-
...CENTRAL MISSOURI...

CITY           SKY/WX    TMP DP  RH WIND       PRES   REMARKS
COLUMBIA       CLOUDY    33  30  88 N16       30.28R WCI  23
6HR MIN TEMP:  32; 6HR MAX TEMP:  36; 6HR PCP:  0.01;

JEFFERSON CITY CLOUDY    34  30  85 NW8       30.30R WCI  27
6HR MIN TEMP:  33; 6HR MAX TEMP:  38; 6HR PCP: TRACE;

ROLLA          CLOUDY    31  28  89 NW15      30.23R FOG     WCI  20
6HR MIN TEMP:  31; 6HR MAX TEMP:  36; 6HR PCP: TRACE;

SEDALIA        CLOUDY    31  27  85 NW15      30.35R WCI  20
6HR MIN TEMP:  31; 6HR MAX TEMP:  35;

OSAGE BEACH    CLOUDY    34  27  75 W9G18     30.31R WCI  26

$$
MOZ051-052-059>065-270700-
...EAST CENTRAL MISSOURI...

CITY           SKY/WX    TMP DP  RH WIND       PRES   REMARKS
ST LOUIS INTL  LGT SNOW  33  30  88 N18       30.21R FOG     WCI  22
6HR MIN TEMP:  33; 6HR MAX TEMP:  35; 6HR PCP:  0.08;

SPIRIT OF STL  LGT SNOW  33  31  92 N10       30.22R FOG     WCI  25
6HR MIN TEMP:  32; 6HR MAX TEMP:  35; 6HR PCP:  0.03;

ST CHARLES     CLOUDY    31  28  89 N17       30.24R WCI  19
6HR MIN TEMP:  31; 6HR MAX TEMP:  33; 6HR PCP:  0.02;


$$
MOZ072>076-082>087-097>100-106>115-270700-
...SOUTH CENTRAL AND SOUTHEAST MISSOURI...

CITY           SKY/WX    TMP DP  RH WIND       PRES   REMARKS
CAPE GIRARDEAU CLOUDY    38  34  85 NW16      30.16R WCI  29
6HR MIN TEMP:  36; 6HR MAX TEMP:  39; 6HR PCP:  0.01;

FARMINGTON     CLOUDY    34  28  80 W14G26    30.18R WCI  24
6HR MIN TEMP:  34; 6HR MAX TEMP:  37; 6HR PCP:  0.04;

POPLAR BLUFF   CLOUDY    39  31  72 NW13G26   30.18R
6HR MIN TEMP:  37; 6HR MAX TEMP:  39;

WEST PLAINS    CLOUDY    34  25  69 NW18G32   30.24R WCI  23
6HR MIN TEMP:  34; 6HR MAX TEMP:  42;


$$



USA.gov is the U.S. government's official web portal to all federal, state and local government web resources and services.